STARLINK-35231

Last updated on Mon Oct 20 2025 00:02:07 GMT+0000 (Coordinated Universal Time)

1 65849U 25221AC 25292.25002315 -.01573632 00000+0 -28940-1 0 9994 2 65849 53.1604 27.7633 0000958 88.6096 280.3716 15.51587510 4436
UTC large
Height (km)
Speed (km/s)
/
Latitude / Longitude
Inclination (degrees)
Orbital Period (minutes)
Azimuth
Elevation
Range (km)
Doppler Factor

Next 0 passes for location: London (51.5072 / 0.1276)

Sorry there are no passes over London.